Location: Innerarity Island Observatory
(30.3139°N, 87.4867°W)
Time: 09:08:13
(UTC-05:00)

Amateur Radio Satellites - All Passes

Search period start: 31 October 2014 08:38
Search period end: 01 November 2014 08:38
Location: Innerarity Island Observatory, 30.3139°N, 87.4867°W

Satellite Date Start Highest point End Downlink Frequencies (MHz)
Time Altitude Azimuth
HO-68 31 Oct 08:40:35 08:45:55 22° 96° (E) 08:51:13 435.675 MHz FM
RS-15 31 Oct 08:42:57 08:51:58 28° 256° (WSW) 09:01:20 29.354 - 29.394 USB, Beacon 29.352 USB
MaSat-1 31 Oct 08:52:16 08:53:45 15° 254° (WSW) 08:55:14 437.345 MHz
PANSAT 31 Oct 09:10:00 09:12:43 18° 203° (SSW) 09:15:25 not established
Oscar 11 31 Oct 09:32:51 09:35:23 15° 95° (E) 09:37:54 145.825 FM, Beacon 2401.500 USB
ISS 31 Oct 09:36:36 09:39:54 75° 314° (NW) 09:43:13 145.800 FM
KITSAT 1 31 Oct 09:39:20 09:46:07 31° 106° (ESE) 09:52:52 435.175 FM
HO-68 31 Oct 10:26:52 10:33:49 54° 289° (WNW) 10:40:44 435.675 MHz FM
UKube-1 31 Oct 10:32:10 10:36:32 90° 282° (WNW) 10:40:53 145.840 MHz, 145.915 MHz
PCSat 31 Oct 10:37:28 10:39:12 11° 51° (NE) 10:40:55 145.825 MHz
ZACube-1 31 Oct 10:41:04 10:45:00 40° 99° (E) 10:48:54 437.345 MHz
Oscar 11 31 Oct 11:07:44 11:11:34 32° 287° (WNW) 11:15:24 145.825 FM, Beacon 2401.500 USB
SO-50 31 Oct 11:09:12 11:13:36 63° 299° (WNW) 11:18:08 436.795 FM
FUNcube-1 31 Oct 11:23:53 11:27:57 53° 284° (WNW) 11:31:58 145.950 - 145.970 MHz USB
KITSAT 1 31 Oct 11:33:25 11:41:07 48° 301° (WNW) 11:48:51 435.175 FM
UOSAT-12 31 Oct 11:54:05 11:58:01 29° 111° (ESE) 12:02:02 437.025 FM, 437.400 FM
Sapphire 31 Oct 11:56:09 12:01:30 56° 63° (ENE) 12:06:48 437.095 MHz 1200 baud AX-25 AFSK
PCSat 31 Oct 12:17:46 12:23:12 82° 247° (WSW) 12:28:36 145.825 MHz
ZACube-1 31 Oct 12:19:32 12:20:59 12° 292° (WNW) 12:22:25 437.345 MHz
Oscar 16 31 Oct 12:29:08 12:31:50 14° 66° (ENE) 12:34:31 437.025 USB, Beacon 2401.1428
Uribyol 2 31 Oct 13:02:39 13:04:44 12° 65° (ENE) 13:06:48 436.500 FM
AO-Echo 31 Oct 13:04:18 13:07:10 16° 67° (ENE) 13:10:05 ?
ITAMSAT 1 31 Oct 13:10:00 13:12:37 14° 66° (ENE) 13:15:15 435.822 SSB
Oscar 19 31 Oct 13:18:43 13:23:38 48° 74° (ENE) 13:28:33 437.125 CW, 437.150 USB
JAS-1B 31 Oct 13:30:43 13:36:29 57° 74° (ENE) 13:42:01 435.800 - 435.900 CW/SSB
UOSAT-12 31 Oct 13:34:24 13:38:06 23° 305° (NW) 13:41:52 437.025 FM, 437.400 FM
Sapphire 31 Oct 13:41:41 13:44:21 14° 256° (WSW) 13:47:01 437.095 MHz 1200 baud AX-25 AFSK
AO-27 31 Oct 13:54:59 13:59:53 43° 73° (ENE) 14:04:48 436.795 MHz FM
Oscar 16 31 Oct 14:05:40 14:10:41 52° 260° (W) 14:15:42 437.025 USB, Beacon 2401.1428
Gurwin Techsat 1B 31 Oct 14:10:49 14:15:24 31° 71° (ENE) 14:20:00 435.225 FM
Saudisat 1A 31 Oct 14:14:35 14:17:30 17° 53° (NE) 14:20:23 436.775 MHz
TMSAT-1 31 Oct 14:17:31 14:21:49 26° 70° (ENE) 14:26:07 436.925 FM
Uribyol 2 31 Oct 14:38:26 14:43:36 63° 258° (WSW) 14:48:47 436.500 FM
AO-Echo 31 Oct 14:40:44 14:45:26 46° 261° (W) 14:50:20 ?
ITAMSAT 1 31 Oct 14:46:29 14:51:34 55° 259° (W) 14:56:42 435.822 SSB
AO-7 31 Oct 14:56:37 15:02:43 23° 61° (ENE) 15:08:47 29.400 - 29.500 MHz
Oscar 19 31 Oct 15:00:21 15:03:08 15° 266° (W) 15:05:55 437.125 CW, 437.150 USB
JAS-1B 31 Oct 15:25:16 15:27:28 12° 266° (W) 15:29:38 435.800 - 435.900 CW/SSB
AO-27 31 Oct 15:36:12 15:39:30 17° 265° (W) 15:42:49 436.795 MHz FM
Gurwin Techsat 1B 31 Oct 15:51:00 15:55:17 25° 263° (W) 15:59:35 435.225 FM
Saudisat 1A 31 Oct 15:53:04 15:57:09 37° 247° (WSW) 16:01:13 436.775 MHz
TMSAT-1 31 Oct 15:56:58 16:01:32 30° 263° (W) 16:06:09 436.925 FM
Uosat F 31 Oct 16:31:54 16:36:54 78° 76° (ENE) 16:41:57 435.120 FM
AO-7 31 Oct 16:46:36 16:54:46 65° 256° (WSW) 17:03:00 29.400 - 29.500 MHz
OPAL 31 Oct 17:08:41 17:11:48 17° 97° (E) 17:14:55 ?
JAS-2 31 Oct 17:34:28 17:40:29 77° 75° (ENE) 17:47:23 435.800 - 435.900 CW/SSB, 435.910 FM
Hamsat 31 Oct 17:38:31 17:42:31 46° 75° (ENE) 17:46:31 145.90 MHz
ISS 31 Oct 17:46:13 17:49:33 82° 227° (SW) 17:52:52 145.800 FM
SO-67 31 Oct 18:23:37 18:25:15 13° 71° (ENE) 18:26:52 435.3500 MHz FM
RS-15 31 Oct 18:43:01 18:45:27 11° 99° (E) 18:47:52 29.354 - 29.394 USB, Beacon 29.352 USB
OPAL 31 Oct 18:46:10 18:50:46 40° 289° (WNW) 18:55:21 ?
STRAND 1 31 Oct 19:04:05 19:08:45 34° 98° (E) 19:13:22 ?
JAS-2 31 Oct 19:24:17 19:26:23 12° 272° (W) 19:28:33 435.800 - 435.900 CW/SSB, 435.910 FM
KITSAT 1 31 Oct 19:33:07 19:40:14 33° 55° (NE) 19:47:17 435.175 FM
SO-50 31 Oct 19:46:32 19:50:37 26° 56° (NE) 19:54:41 436.795 FM
Oscar 10/S400 31 Oct 19:52:57 20:27:42 70° 201° (SSW) 06:37:53 145.825 - 145.975 CW/USB, Beacon 145.810 USB
SO-67 31 Oct 19:55:11 19:57:56 23° 263° (W) 20:00:42 435.3500 MHz FM
AO-40 31 Oct 19:57:08 21:20:45 15° 101° (ESE) 22:13:49 Beacon 2401.320
STRAND 1 31 Oct 20:43:51 20:47:39 21° 291° (WNW) 20:51:26 ?
RS-15 31 Oct 20:44:57 20:56:00 76° 113° (ESE) 21:06:51 29.354 - 29.394 USB, Beacon 29.352 USB
MaSat-1 31 Oct 20:46:56 20:48:53 13° 105° (ESE) 20:50:46 437.345 MHz
HO-68 31 Oct 20:48:24 20:55:27 65° 72° (ENE) 21:02:32 435.675 MHz FM
UKube-1 31 Oct 21:22:02 21:26:01 36° 73° (ENE) 21:30:00 145.840 MHz, 145.915 MHz
SO-50 31 Oct 21:26:55 21:31:05 29° 249° (WSW) 21:35:15 436.795 FM
KITSAT 1 31 Oct 21:28:06 21:35:41 46° 251° (WSW) 21:43:15 435.175 FM
ZACube-1 31 Oct 21:32:40 21:35:46 18° 70° (ENE) 21:38:49 437.345 MHz
Oscar 11 31 Oct 21:56:21 22:00:40 89° 258° (WSW) 22:05:00 145.825 FM, Beacon 2401.500 USB
UOSAT-12 31 Oct 22:08:22 22:13:02 64° 61° (ENE) 22:17:35 437.025 FM, 437.400 FM
FUNcube-1 31 Oct 22:13:53 22:18:21 57° 76° (ENE) 22:22:44 145.950 - 145.970 MHz USB
MaSat-1 31 Oct 22:20:27 22:24:03 31° 294° (WNW) 22:27:21 437.345 MHz
HO-68 31 Oct 22:38:56 22:43:29 18° 265° (W) 22:48:04 435.675 MHz FM
UKube-1 31 Oct 22:59:58 23:02:15 14° 265° (W) 23:04:33 145.840 MHz, 145.915 MHz
RS-15 31 Oct 23:00:32 23:09:17 27° 314° (NW) 23:18:04 29.354 - 29.394 USB, Beacon 29.352 USB
ZACube-1 31 Oct 23:07:50 23:11:53 31° 262° (W) 23:15:52 437.345 MHz
Sapphire 01 Nov 00:51:09 00:54:26 16° 104° (ESE) 00:57:42 437.095 MHz 1200 baud AX-25 AFSK
PCSat 01 Nov 01:11:13 01:15:50 30° 107° (ESE) 01:20:29 145.825 MHz
JAS-1B 01 Nov 01:19:06 01:25:32 28° 99° (E) 01:32:47 435.800 - 435.900 CW/SSB
Oscar 19 01 Nov 01:36:33 01:40:52 27° 97° (E) 01:45:10 437.125 CW, 437.150 USB
PANSAT 01 Nov 02:05:12 02:07:35 16° 156° (SSE) 02:09:58 not established
AO-27 01 Nov 02:14:23 02:18:38 25° 97° (E) 02:22:51 436.795 MHz FM
Oscar 16 01 Nov 02:23:03 02:28:11 90° 104° (ESE) 02:33:19 437.025 USB, Beacon 2401.1428
Sapphire 01 Nov 02:32:10 02:37:22 48° 298° (WNW) 02:42:36 437.095 MHz 1200 baud AX-25 AFSK
Gurwin Techsat 1B 01 Nov 02:33:23 02:37:10 20° 95° (E) 02:40:56 435.225 FM
TMSAT-1 01 Nov 02:39:53 02:43:05 16° 94° (E) 02:46:15 436.925 FM
AO-Echo 01 Nov 02:53:27 02:58:47 88° 283° (WNW) 03:04:00 ?
PCSat 01 Nov 02:54:32 02:59:08 28° 301° (WNW) 03:03:46 145.825 MHz
Uribyol 2 01 Nov 02:57:02 03:02:14 77° 102° (ESE) 03:07:24 436.500 FM
ITAMSAT 1 01 Nov 03:05:08 03:10:22 87° 103° (ESE) 03:15:34 435.822 SSB
JAS-1B 01 Nov 03:08:46 03:15:59 53° 287° (WNW) 03:24:30 435.800 - 435.900 CW/SSB
Oscar 19 01 Nov 03:15:51 03:20:03 26° 290° (WNW) 03:24:15 437.125 CW, 437.150 USB
PANSAT 01 Nov 03:43:40 03:47:20 43° 167° (SSE) 03:51:00 not established
RS-15 01 Nov 03:44:29 03:48:22 12° 30° (NNE) 03:52:16 29.354 - 29.394 USB, Beacon 29.352 USB
AO-27 01 Nov 03:53:34 03:58:02 29° 290° (WNW) 04:02:28 436.795 MHz FM
Gurwin Techsat 1B 01 Nov 04:12:17 04:17:10 38° 288° (WNW) 04:22:02 435.225 FM
Saudisat 1A 01 Nov 04:16:11 04:18:43 15° 109° (ESE) 04:21:15 436.775 MHz
TMSAT-1 01 Nov 04:18:05 04:23:08 46° 287° (WNW) 04:28:09 436.925 FM
OPAL 01 Nov 04:18:26 04:21:42 17° 66° (ENE) 04:24:58 ?
Uosat F 01 Nov 04:45:43 04:50:24 38° 99° (E) 04:55:03 435.120 FM
JAS-2 01 Nov 04:51:57 04:56:51 18° 91° (E) 05:01:33 435.800 - 435.900 CW/SSB, 435.910 FM
AO-7 01 Nov 04:54:32 05:02:49 65° 104° (ESE) 05:11:04 29.400 - 29.500 MHz
PANSAT 01 Nov 05:23:31 05:27:20 67° 179° (S) 05:31:09 not established
Hamsat 01 Nov 05:31:25 05:33:23 13° 94° (E) 05:35:22 145.90 MHz
RS-15 01 Nov 05:53:23 06:04:14 51° 57° (ENE) 06:15:30 29.354 - 29.394 USB, Beacon 29.352 USB
Saudisat 1A 01 Nov 05:53:52 05:57:55 37° 302° (WNW) 06:02:00 436.775 MHz
OPAL 01 Nov 05:55:20 06:00:12 43° 258° (WSW) 06:05:02 ?
STRAND 1 01 Nov 06:14:40 06:18:59 28° 70° (ENE) 06:23:20 ?
Uosat F 01 Nov 06:25:26 06:28:50 19° 292° (WNW) 06:32:14 435.120 FM
JAS-2 01 Nov 06:34:32 06:42:22 73° 286° (WNW) 06:49:45 435.800 - 435.900 CW/SSB, 435.910 FM
AO-7 01 Nov 06:48:44 06:54:52 24° 299° (WNW) 07:01:02 29.400 - 29.500 MHz
PANSAT 01 Nov 07:03:39 07:07:20 46° 192° (SSW) 07:11:01 not established
Hamsat 01 Nov 07:05:30 07:09:23 36° 286° (WNW) 07:13:18 145.90 MHz
SO-67 01 Nov 07:23:21 07:26:27 31° 98° (E) 07:29:32 435.3500 MHz FM
STRAND 1 01 Nov 07:53:51 07:58:03 26° 263° (W) 08:02:18 ?
RS-15 01 Nov 08:06:07 08:16:15 40° 253° (WSW) 08:26:51 29.354 - 29.394 USB, Beacon 29.352 USB
MaSat-1 01 Nov 08:09:57 08:12:16 54° 250° (WSW) 08:14:32 437.345 MHz
JAS-2 01 Nov 08:23:38 08:25:58 12° 301° (WNW) 08:28:16 435.800 - 435.900 CW/SSB, 435.910 FM
HO-68 01 Nov 08:24:53 08:28:52 16° 94° (E) 08:32:49 435.675 MHz FM
